Flag for Lebanon

Past Weather in Beirut, Lebanon — Yesterday and Last 2 Weeks

Now
81 °F

Passing clouds.


Feels Like: 83 °F
Forecast: 82 / 75 °F
Wind: 3 mph from East

Location: Beirut Airport
Current Time: Oct 21, 2020 at 8:18:15 pm
Latest Report: Oct 21, 2020 at 7:00 pm
Visibility: 5 mi
Pressure30.09 "Hg
Humidity: 66%
Dew Point: 68 °F
Location of BeirutLocation

Past Weather in Beirut — Graph

°F

Beirut Temperature Yesterday

Maximum temperature yesterday: 88 °F (at 12:00 pm)
Minimum temperature yesterday: 73 °F (at 8:00 am)
Average temperature yesterday: 80 °F

High & Low Weather Summary for the Past Weeks

 TemperatureHumidityPressure
High95 °F (Oct 9, 5:00 pm)79% (Oct 10, 10:00 am)30.09 "Hg (Oct 10, 10:00 am)
Low72 °F (Oct 18, 5:00 am)16% (Oct 9, 5:00 pm)29.92 "Hg (Oct 7, 7:00 am)
Average80 °F57%30.01 "Hg
* Reported Oct 6 7:00 pm — Oct 21 7:00 pm, Beirut. Weather by CustomWeather, © 2020

Note: Actual official high and low records may vary slightly from our data, if they occured in-between our weather recording intervals... More about our weather records

Beirut Weather History for the Previous 24 Hours

Scroll right to see more
 ConditionsComfort  
Time TempWeatherWind HumidityBarometerVisibility
7:00 pm
Wed, Oct 21
81 °FPassing clouds.3 mph66%30.09 "Hg5 mi
6:00 pm81 °FPassing clouds.5 mph62%30.07 "Hg5 mi
5:00 pm82 °FScattered clouds.12 mph66%30.07 "Hg5 mi
4:00 pm82 °FPartly sunny.13 mph66%30.07 "Hg5 mi
3:00 pm82 °FScattered clouds.8 mph70%30.07 "Hg5 mi
2:00 pm82 °FScattered clouds.8 mph62%30.09 "Hg5 mi
1:00 pm82 °FScattered clouds.6 mph66%30.09 "Hg5 mi
12:00 pm82 °FScattered clouds.6 mph66%30.07 "Hg5 mi
11:00 am81 °FScattered clouds.7 mph70%30.07 "Hg5 mi
10:00 am81 °FPassing clouds.6 mph62%30.07 "HgN/A
9:00 am79 °FPassing clouds.7 mph58%30.04 "HgN/A
8:00 am75 °FSunny.6 mph65%30.04 "Hg10 mi
7:00 am75 °FSunny.5 mph65%30.01 "Hg10 mi
6:00 am77 °FPassing clouds.6 mph61%30.01 "Hg4 mi
5:00 am77 °FPassing clouds.5 mph61%30.01 "Hg4 mi
4:00 am75 °FClear.7 mph65%30.01 "Hg4 mi
3:00 am75 °FClear.7 mph65%30.01 "Hg4 mi
2:00 am77 °FClear.6 mph65%30.01 "Hg4 mi
1:00 am77 °FClear.3 mph69%30.01 "Hg4 mi
12:00 am79 °FClear.6 mph70%30.01 "Hg4 mi
11:00 pm
Tue, Oct 20
81 °FClear.3 mph74%30.04 "Hg4 mi
10:00 pm81 °FClear.9 mph66%30.01 "Hg4 mi
9:00 pm81 °FClear.14 mph70%30.01 "Hg4 mi
8:00 pm81 °FClear.14 mph70%30.01 "Hg4 mi
Weather by CustomWeather, © 2020

See weather overview